TimePST,TemperatureF,Dew PointF,Humidity,Sea Level PressureIn,VisibilityMPH,Wind Direction,Wind SpeedMPH,Gust SpeedMPH,PrecipitationIn,Events,Conditions,WindDirDegrees,DateUTC
12:10 AM,41.0,39.2,93,30.09,2.5,Calm,Calm,-,N/A,,Partly Cloudy,0,2012-11-27 08:10:00
12:17 AM,42.8,39.2,87,30.09,7.0,NNE,3.5,-,N/A,,Partly Cloudy,20,2012-11-27 08:17:00
12:53 AM,39.9,37.9,93,30.08,3.0,Calm,Calm,-,N/A,,Clear,0,2012-11-27 08:53:00
1:53 AM,39.0,37.9,96,30.09,4.0,Calm,Calm,-,N/A,,Clear,0,2012-11-27 09:53:00
2:33 AM,39.2,37.4,93,30.10,2.0,Calm,Calm,-,N/A,,Clear,0,2012-11-27 10:33:00
2:43 AM,39.2,37.4,93,30.10,6.0,East,3.5,-,N/A,,Clear,80,2012-11-27 10:43:00
2:53 AM,39.0,37.9,96,30.09,6.0,Calm,Calm,-,N/A,,Clear,0,2012-11-27 10:53:00
3:53 AM,39.0,37.9,96,30.08,4.0,Calm,Calm,-,N/A,,Clear,0,2012-11-27 11:53:00
4:53 AM,39.0,37.0,93,30.09,6.0,Calm,Calm,-,N/A,,Clear,0,2012-11-27 12:53:00
5:53 AM,37.9,37.0,97,30.11,8.0,Calm,Calm,-,N/A,,Clear,0,2012-11-27 13:53:00
6:53 AM,37.0,35.1,93,30.15,7.0,West,4.6,-,N/A,,Clear,280,2012-11-27 14:53:00
7:23 AM,50.0,46.4,87,30.16,6.0,WNW,8.1,-,N/A,,Scattered Clouds,290,2012-11-27 15:23:00
7:27 AM,50.0,48.2,94,30.17,2.5,West,8.1,-,N/A,,Mostly Cloudy,280,2012-11-27 15:27:00
7:35 AM,50.0,48.2,94,30.17,1.2,WNW,4.6,-,N/A,,Mostly Cloudy,300,2012-11-27 15:35:00
7:40 AM,51.8,50.0,94,30.17,0.8,WNW,3.5,-,N/A,,Overcast,290,2012-11-27 15:40:00
7:53 AM,51.1,50.0,96,30.17,2.0,WNW,3.5,-,N/A,,Mostly Cloudy,290,2012-11-27 15:53:00
8:26 AM,51.8,50.0,94,30.18,7.0,Calm,Calm,-,N/A,,Scattered Clouds,0,2012-11-27 16:26:00
8:53 AM,55.0,48.9,80,30.16,8.0,Calm,Calm,-,N/A,,Clear,0,2012-11-27 16:53:00
9:53 AM,63.0,45.0,52,30.14,10.0,Calm,Calm,-,N/A,,Clear,0,2012-11-27 17:53:00
10:53 AM,64.0,50.0,60,30.12,10.0,WNW,8.1,-,N/A,,Clear,300,2012-11-27 18:53:00
11:53 AM,68.0,48.0,49,30.09,10.0,Calm,Calm,-,N/A,,Clear,0,2012-11-27 19:53:00
12:53 PM,73.9,44.1,34,30.04,10.0,Calm,Calm,-,N/A,,Clear,0,2012-11-27 20:53:00
1:53 PM,73.9,46.9,38,30.02,10.0,NW,11.5,-,N/A,,Clear,310,2012-11-27 21:53:00
2:53 PM,70.0,48.0,46,30.03,10.0,WNW,9.2,-,N/A,,Clear,300,2012-11-27 22:53:00
3:53 PM,64.9,53.1,65,30.05,10.0,West,13.8,-,N/A,,Clear,270,2012-11-27 23:53:00
4:53 PM,55.0,52.0,89,30.07,4.0,West,6.9,-,N/A,,Clear,270,2012-11-28 00:53:00
5:45 PM,50.0,48.2,94,30.09,2.5,West,5.8,-,N/A,,Clear,280,2012-11-28 01:45:00
5:53 PM,50.0,48.0,93,30.09,2.0,West,3.5,-,N/A,,Clear,270,2012-11-28 01:53:00
6:17 PM,48.2,48.2,100,30.10,1.2,WSW,4.6,-,N/A,,Clear,250,2012-11-28 02:17:00
6:28 PM,48.2,46.4,93,30.10,0.8,West,4.6,-,N/A,,Clear,260,2012-11-28 02:28:00
6:32 PM,48.2,46.4,93,30.11,0.5,West,4.6,-,N/A,Fog,Fog,260,2012-11-28 02:32:00
6:36 PM,46.4,46.4,100,30.11,0.2,West,4.6,-,N/A,Fog,Fog,270,2012-11-28 02:36:00
6:50 PM,50.0,48.2,94,30.11,0.2,WNW,5.8,-,N/A,Fog,Fog,290,2012-11-28 02:50:00
6:53 PM,51.1,50.0,96,30.12,0.5,WNW,4.6,-,N/A,Fog,Fog,290,2012-11-28 02:53:00
6:57 PM,51.8,51.8,100,30.11,1.5,Calm,Calm,-,N/A,,Overcast,0,2012-11-28 02:57:00
7:05 PM,51.8,51.8,100,30.12,2.0,West,3.5,-,N/A,,Overcast,260,2012-11-28 03:05:00
7:13 PM,51.8,51.8,100,30.12,1.8,West,3.5,-,N/A,,Overcast,270,2012-11-28 03:13:00
7:35 PM,53.6,53.6,100,30.13,0.8,Calm,Calm,-,N/A,,Overcast,0,2012-11-28 03:35:00
7:53 PM,54.0,53.1,97,30.12,0.8,Calm,Calm,-,N/A,,Mist,0,2012-11-28 03:53:00
8:09 PM,53.6,53.6,100,30.13,1.2,East,4.6,-,N/A,,Overcast,90,2012-11-28 04:09:00
8:53 PM,53.1,53.1,100,30.12,1.0,East,4.6,-,N/A,,Overcast,80,2012-11-28 04:53:00
9:01 PM,53.6,53.6,100,30.13,0.5,ENE,4.6,-,N/A,Fog,Fog,70,2012-11-28 05:01:00
9:31 PM,53.6,51.8,94,30.14,0.2,Calm,Calm,-,N/A,Fog,Fog,0,2012-11-28 05:31:00
9:53 PM,52.0,52.0,100,30.13,0.2,Calm,Calm,-,N/A,Fog,Fog,0,2012-11-28 05:53:00
10:53 PM,53.1,53.1,100,30.14,0.5,Calm,Calm,-,N/A,Fog,Fog,0,2012-11-28 06:53:00
11:43 PM,53.6,51.8,94,30.16,0.2,Calm,Calm,-,N/A,Fog,Fog,0,2012-11-28 07:43:00
11:53 PM,52.0,52.0,100,30.14,0.2,Calm,Calm,-,N/A,Fog,Fog,0,2012-11-28 07:53:00